#timestamp,LO_Frequency,Hit,StdDev 
1624266015.4,286046994.6,N
1624266035.2,286046995.8,N
1624266055.1,286046998.8,N
1624266056.0,286046998.8,N
1624266075.8,286046997.5,N
1624266095.6,286046995.1,N
1624266115.5,286046994.4,N
1624266135.3,286046992.8,N
1624266155.2,286046991.1,N
1624266175.0,286046988.9,N
1624266175.9,286046988.9,N
1624266195.7,286046988.6,N
1624266215.6,286046988.7,N
1624266235.4,286046989.6,N
1624266255.3,286046989.5,N
1624266275.1,286046987.1,N
1624266295.8,286046989.6,N
1624266315.4,286046987.2,N
1624266335.2,286046988.3,N
1624266355.1,286046988.1,N
1624266356.0,286046988.1,N
1624266375.8,286046986.5,N
1624266395.6,286046985.6,Y
1624266415.5,286046995.6,P
1624266435.3,286046995.6,N
1624266455.1,286046997.9,N
1624266475.9,286046995.2,N
1624266495.7,286046996.2,N
1624266515.6,286046996.1,N
1624266535.4,286046993.5,Y
1624266555.2,286046993.9,P
1624266575.1,286046994.0,P
1624266576.0,286046994.0,P
1624266595.8,286046991.8,Y
1624266615.7,286046997.3,P
1624266635.5,286046992.0,P
1624266655.3,286046991.3,P
1624266675.2,286046993.1,N
1624266695.0,286046991.9,Y
1624266695.9,286046991.9,P
1624266715.8,286046998.6,N
1624266735.6,286046999.5,N
1624266755.4,286046996.8,N
1624266775.3,286046995.9,N
1624266795.1,286046989.8,Y
1624266815.9,286046996.5,P
1624266835.7,286046999.9,N
1624266855.5,286047004.4,N
1624266875.4,286047005.3,N
1624266895.2,286047004.7,N
1624266915.0,286047007.3,N
1624266915.9,286047007.3,N
1624266935.8,286047006.9,N
1624266955.6,286047006.8,N
1624266975.5,286047006.4,N
1624266995.3,286047006.8,N
1624267015.1,286047004.5,N
1624267035.9,286047002.0,N
1624267055.7,286047000.5,N
1624267075.6,286047001.0,N
1624267095.4,286046998.4,N
1624267115.2,286047000.3,N
1624267135.1,286047001.6,N
1624267136.0,286047001.6,N
1624267155.8,286047003.7,N
1624267175.6,286047005.7,N
1624267195.5,286047005.3,N
1624267215.3,286047004.8,N
1624267235.2,286047006.7,N
1624267255.9,286047004.5,N
1624267275.7,286047005.2,N
1624267295.6,286047004.0,N
1624267315.4,286047000.5,N
1624267335.3,286047002.2,N
1624267355.1,286047000.5,N
1624267356.0,286047000.5,N
1624267375.8,286046998.2,N
1624267395.7,286046998.5,N
1624267415.5,286046995.7,N
1624267435.3,286046993.4,N
1624267455.2,286046988.9,Y
1624267475.0,286046977.5,P
1624267475.9,286046977.5,N
1624267495.8,286046984.8,N
1624267515.6,286046987.6,N
1624267535.4,286046989.2,N
1624267555.3,286046987.5,N
1624267575.1,286046989.6,N
1624267595.9,286046991.6,N
1624267615.7,286046990.1,N
1624267635.6,286046989.3,N
1624267655.4,286046988.7,N
1624267675.2,286046989.8,N
1624267695.1,286046986.2,N
1624267696.0,286046986.2,N
1624267715.8,286046984.0,N
1624267735.7,286046982.4,Y
1624267755.5,286046995.5,P
1624267775.3,286046992.7,N
1624267795.2,286046994.5,N
1624267815.0,286046991.6,N
1624267815.9,286046991.6,Y
1624267835.8,286046998.1,P
1624267855.6,286047000.8,N
1624267875.4,286047000.1,N
1624267895.3,286047002.5,N
1624267915.1,286047001.2,N
1624267935.9,286047002.2,N
1624267955.7,286047000.4,N
1624267975.5,286047000.9,N
1624267995.4,286047000.3,N
1624268015.2,286047001.2,N
1624268035.0,286046998.4,N
1624268035.9,286046998.4,N
1624268055.8,286047000.6,N
1624268075.6,286047000.4,N
1624268095.5,286046999.3,N
1624268115.3,286046998.7,N
1624268135.1,286047001.0,N
1624268155.9,286046997.6,N
1624268175.7,286046997.9,N
1624268195.6,286046997.1,N
1624268215.4,286046999.1,N
1624268235.2,286046996.9,N
1624268255.1,286046997.0,N
1624268256.0,286046997.0,N
1624268275.8,286047001.2,N
1624268295.6,286046994.9,N
1624268315.5,286046995.5,N
1624268335.3,286046993.2,N
1624268355.2,286046991.8,Y
1624268375.0,286046994.6,P
1624268375.9,286046994.6,N
1624268395.7,286046992.2,P
1624268415.6,286046992.3,Y
1624268435.4,286046986.3,P
1624268455.3,286046996.9,N
1624268475.1,286046996.9,N
1624268495.8,286046997.3,N
1624268515.7,286046993.5,N
1624268535.5,286046993.9,N
1624268555.4,286046992.7,N
1624268575.2,286046988.8,Y
1624268595.0,286046995.4,P
1624268595.9,286046995.4,P
1624268615.8,286046997.7,P
1624268635.6,286046998.6,N
1624268655.4,286046996.6,N
1624268675.3,286046996.6,N
1624268695.1,286046996.6,N
1624268715.9,286046994.9,Y
1624268735.7,286046998.4,P
1624268755.5,286046999.0,N
1624268775.4,286046996.9,N
1624268795.2,286046995.8,Y
1624268815.1,286047001.2,P
1624268816.0,286047001.2,N
1624268835.8,286047000.8,N
1624268855.6,286046999.5,N
1624268875.5,286046996.9,N
1624268895.3,286046999.5,N
1624268915.2,286046997.1,N
1624268935.9,286046992.1,Y
1624268955.7,286046993.3,P
1624268975.6,286046996.4,N
1624268995.4,286046993.5,N
1624269015.3,286046993.7,N
1624269035.1,286046995.0,N
1624269036.0,286046995.0,N
1624269055.8,286046995.4,N
1624269075.7,286046999.2,N
1624269095.5,286046998.5,N
1624269115.3,286047000.9,N
1624269135.2,286046996.6,N
1624269155.0,286046996.8,N
1624269155.9,286046996.8,N
1624269175.8,286046997.7,N
1624269195.6,286046998.7,N
1624269215.4,286046999.3,N
1624269235.3,286046997.4,N
1624269255.1,286046999.2,N
1624269275.8,286046996.6,N
1624269295.7,286046999.2,N
1624269315.5,286046997.7,N
1624269335.4,286046997.9,N
1624269355.2,286046993.7,Y
1624269375.0,286046995.6,P
1624269375.9,286046995.6,P
1624269395.8,286046994.1,P
1624269415.6,286046991.7,Y
1624269435.5,286046999.1,P
1624269455.3,286046999.5,N
1624269475.1,286047001.1,N
1624269495.9,286047000.9,N
1624269515.7,286046997.0,N
1624269535.6,286046997.4,N
1624269555.4,286046994.9,N
1624269575.2,286046996.1,N
1624269595.1,286046993.8,N
1624269596.0,286046993.8,N
